Orbital Elements at Epoch 2459200.5 (2020-Dec-17.0) TDB
Reference: JPL 24 (heliocentric ecliptic J2000)
Element | Value | Uncertainty (1-sigma) | Units |
e | .06949407682726093 | 4.4702e-08 | |
a | 2.588470189885279 | 1.2786e-08 | au |
q | 2.408586843644316 | 1.1898e-07 | au |
i | 8.511125102379308 | 4.5089e-06 | deg |
node | 94.24883843055586 | 2.7135e-05 | deg |
peri | 342.2444346346896 | 3.9654e-05 | deg |
M | 346.2888513233069 | 2.7703e-05 | deg |
tp | 2459258.434133788686 (2021-Feb-12.93413379) | 0.00011695 | TDB |
period | 1521.118956238835 4.16 | 1.1271e-05 3.086e-08 | d yr |
n | .2366678809198111 | 1.7536e-09 | deg/d |
Q | 2.768353536126241 | 1.3675e-08 | au |
|
| | Orbit Determination Parameters
Additional Information
|